Index of /20260502/WXO-DD/model_rdps/10km/18/007
Name Last modified Size Description
Parent Directory -
20260502T18Z_MSC_RDPS_AbsoluteVorticity_IsbL-0250_RLatLon0.09_PT007H.grib2 2026-05-02 20:41 610K
20260502T18Z_MSC_RDPS_AbsoluteVorticity_IsbL-0500_RLatLon0.09_PT007H.grib2 2026-05-02 20:41 558K
20260502T18Z_MSC_RDPS_AbsoluteVorticity_IsbL-0700_RLatLon0.09_PT007H.grib2 2026-05-02 20:41 630K
20260502T18Z_MSC_RDPS_AbsoluteVorticity_IsbL-0850_RLatLon0.09_PT007H.grib2 2026-05-02 20:41 743K
20260502T18Z_MSC_RDPS_AirTemp_AGL-120m_RLatLon0.09_PT007H.grib2 2026-05-02 20:41 382K
20260502T18Z_MSC_RDPS_AirTemp_AGL-2m_RLatLon0.09_PT007H.grib2 2026-05-02 20:41 617K
20260502T18Z_MSC_RDPS_AirTemp_AGL-40m_RLatLon0.09_PT007H.grib2 2026-05-02 20:41 392K
20260502T18Z_MSC_RDPS_AirTemp_AGL-80m_RLatLon0.09_PT007H.grib2 2026-05-02 20:41 385K
20260502T18Z_MSC_RDPS_AirTemp_IsbL-0001_RLatLon0.09_PT007H.grib2 2026-05-02 20:41 252K
20260502T18Z_MSC_RDPS_AirTemp_IsbL-0005_RLatLon0.09_PT007H.grib2 2026-05-02 20:41 274K
20260502T18Z_MSC_RDPS_AirTemp_IsbL-0010_RLatLon0.09_PT007H.grib2 2026-05-02 20:41 284K
20260502T18Z_MSC_RDPS_AirTemp_IsbL-0020_RLatLon0.09_PT007H.grib2 2026-05-02 20:41 391K
20260502T18Z_MSC_RDPS_AirTemp_IsbL-0030_RLatLon0.09_PT007H.grib2 2026-05-02 20:41 321K
20260502T18Z_MSC_RDPS_AirTemp_IsbL-0050_RLatLon0.09_PT007H.grib2 2026-05-02 20:41 303K
20260502T18Z_MSC_RDPS_AirTemp_IsbL-0100_RLatLon0.09_PT007H.grib2 2026-05-02 20:41 380K
20260502T18Z_MSC_RDPS_AirTemp_IsbL-0150_RLatLon0.09_PT007H.grib2 2026-05-02 20:41 413K
20260502T18Z_MSC_RDPS_AirTemp_IsbL-0175_RLatLon0.09_PT007H.grib2 2026-05-02 20:41 406K
20260502T18Z_MSC_RDPS_AirTemp_IsbL-0200_RLatLon0.09_PT007H.grib2 2026-05-02 20:41 413K
20260502T18Z_MSC_RDPS_AirTemp_IsbL-0225_RLatLon0.09_PT007H.grib2 2026-05-02 20:41 412K
20260502T18Z_MSC_RDPS_AirTemp_IsbL-0250_RLatLon0.09_PT007H.grib2 2026-05-02 20:41 419K
20260502T18Z_MSC_RDPS_AirTemp_IsbL-0275_RLatLon0.09_PT007H.grib2 2026-05-02 20:41 402K
20260502T18Z_MSC_RDPS_AirTemp_IsbL-0300_RLatLon0.09_PT007H.grib2 2026-05-02 20:41 409K
20260502T18Z_MSC_RDPS_AirTemp_IsbL-0350_RLatLon0.09_PT007H.grib2 2026-05-02 20:41 424K
20260502T18Z_MSC_RDPS_AirTemp_IsbL-0400_RLatLon0.09_PT007H.grib2 2026-05-02 20:41 426K
20260502T18Z_MSC_RDPS_AirTemp_IsbL-0450_RLatLon0.09_PT007H.grib2 2026-05-02 20:41 399K
20260502T18Z_MSC_RDPS_AirTemp_IsbL-0500_RLatLon0.09_PT007H.grib2 2026-05-02 20:41 412K
20260502T18Z_MSC_RDPS_AirTemp_IsbL-0550_RLatLon0.09_PT007H.grib2 2026-05-02 20:41 430K
20260502T18Z_MSC_RDPS_AirTemp_IsbL-0600_RLatLon0.09_PT007H.grib2 2026-05-02 20:41 449K
20260502T18Z_MSC_RDPS_AirTemp_IsbL-0650_RLatLon0.09_PT007H.grib2 2026-05-02 20:41 465K
20260502T18Z_MSC_RDPS_AirTemp_IsbL-0700_RLatLon0.09_PT007H.grib2 2026-05-02 20:41 489K
20260502T18Z_MSC_RDPS_AirTemp_IsbL-0750_RLatLon0.09_PT007H.grib2 2026-05-02 20:41 408K
20260502T18Z_MSC_RDPS_AirTemp_IsbL-0800_RLatLon0.09_PT007H.grib2 2026-05-02 20:41 443K
20260502T18Z_MSC_RDPS_AirTemp_IsbL-0850_RLatLon0.09_PT007H.grib2 2026-05-02 20:41 487K
20260502T18Z_MSC_RDPS_AirTemp_IsbL-0875_RLatLon0.09_PT007H.grib2 2026-05-02 20:41 506K
20260502T18Z_MSC_RDPS_AirTemp_IsbL-0900_RLatLon0.09_PT007H.grib2 2026-05-02 20:41 514K
20260502T18Z_MSC_RDPS_AirTemp_IsbL-0925_RLatLon0.09_PT007H.grib2 2026-05-02 20:41 510K
20260502T18Z_MSC_RDPS_AirTemp_IsbL-0950_RLatLon0.09_PT007H.grib2 2026-05-02 20:41 512K
20260502T18Z_MSC_RDPS_AirTemp_IsbL-0970_RLatLon0.09_PT007H.grib2 2026-05-02 20:41 510K
20260502T18Z_MSC_RDPS_AirTemp_IsbL-0985_RLatLon0.09_PT007H.grib2 2026-05-02 20:41 501K
20260502T18Z_MSC_RDPS_AirTemp_IsbL-1000_RLatLon0.09_PT007H.grib2 2026-05-02 20:41 485K
20260502T18Z_MSC_RDPS_AirTemp_IsbL-1015_RLatLon0.09_PT007H.grib2 2026-05-02 20:41 482K
20260502T18Z_MSC_RDPS_Albedo_Sfc_RLatLon0.09_PT007H.grib2 2026-05-02 20:41 159K
20260502T18Z_MSC_RDPS_CAPE_Sfc_RLatLon0.09_PT007H.grib2 2026-05-02 20:41 1.7M
20260502T18Z_MSC_RDPS_CIN_Sfc_RLatLon0.09_PT007H.grib2 2026-05-02 20:41 1.2M
20260502T18Z_MSC_RDPS_CloudWater_EAtm_RLatLon0.09_PT007H.grib2 2026-05-02 20:41 220K
20260502T18Z_MSC_RDPS_ConvectivePrecip-Accum_Sfc_RLatLon0.09_PT007H.grib2 2026-05-02 20:41 559K
20260502T18Z_MSC_RDPS_DewPointDepression_AGL-2m_RLatLon0.09_PT007H.grib2 2026-05-02 20:41 406K
20260502T18Z_MSC_RDPS_DewPointDepression_IsbL-0001_RLatLon0.09_PT007H.grib2 2026-05-02 20:41 193
20260502T18Z_MSC_RDPS_DewPointDepression_IsbL-0005_RLatLon0.09_PT007H.grib2 2026-05-02 20:41 193
20260502T18Z_MSC_RDPS_DewPointDepression_IsbL-0010_RLatLon0.09_PT007H.grib2 2026-05-02 20:41 193
20260502T18Z_MSC_RDPS_DewPointDepression_IsbL-0020_RLatLon0.09_PT007H.grib2 2026-05-02 20:41 193
20260502T18Z_MSC_RDPS_DewPointDepression_IsbL-0030_RLatLon0.09_PT007H.grib2 2026-05-02 20:41 193
20260502T18Z_MSC_RDPS_DewPointDepression_IsbL-0050_RLatLon0.09_PT007H.grib2 2026-05-02 20:41 76K
20260502T18Z_MSC_RDPS_DewPointDepression_IsbL-0100_RLatLon0.09_PT007H.grib2 2026-05-02 20:41 118K
20260502T18Z_MSC_RDPS_DewPointDepression_IsbL-0150_RLatLon0.09_PT007H.grib2 2026-05-02 20:41 153K
20260502T18Z_MSC_RDPS_DewPointDepression_IsbL-0175_RLatLon0.09_PT007H.grib2 2026-05-02 20:41 189K
20260502T18Z_MSC_RDPS_DewPointDepression_IsbL-0200_RLatLon0.09_PT007H.grib2 2026-05-02 20:41 223K
20260502T18Z_MSC_RDPS_DewPointDepression_IsbL-0225_RLatLon0.09_PT007H.grib2 2026-05-02 20:41 260K
20260502T18Z_MSC_RDPS_DewPointDepression_IsbL-0250_RLatLon0.09_PT007H.grib2 2026-05-02 20:41 298K
20260502T18Z_MSC_RDPS_DewPointDepression_IsbL-0275_RLatLon0.09_PT007H.grib2 2026-05-02 20:41 309K
20260502T18Z_MSC_RDPS_DewPointDepression_IsbL-0300_RLatLon0.09_PT007H.grib2 2026-05-02 20:41 326K
20260502T18Z_MSC_RDPS_DewPointDepression_IsbL-0350_RLatLon0.09_PT007H.grib2 2026-05-02 20:41 332K
20260502T18Z_MSC_RDPS_DewPointDepression_IsbL-0400_RLatLon0.09_PT007H.grib2 2026-05-02 20:41 340K
20260502T18Z_MSC_RDPS_DewPointDepression_IsbL-0450_RLatLon0.09_PT007H.grib2 2026-05-02 20:41 345K
20260502T18Z_MSC_RDPS_DewPointDepression_IsbL-0500_RLatLon0.09_PT007H.grib2 2026-05-02 20:41 353K
20260502T18Z_MSC_RDPS_DewPointDepression_IsbL-0550_RLatLon0.09_PT007H.grib2 2026-05-02 20:41 365K
20260502T18Z_MSC_RDPS_DewPointDepression_IsbL-0600_RLatLon0.09_PT007H.grib2 2026-05-02 20:41 376K
20260502T18Z_MSC_RDPS_DewPointDepression_IsbL-0650_RLatLon0.09_PT007H.grib2 2026-05-02 20:41 385K
20260502T18Z_MSC_RDPS_DewPointDepression_IsbL-0700_RLatLon0.09_PT007H.grib2 2026-05-02 20:41 396K
20260502T18Z_MSC_RDPS_DewPointDepression_IsbL-0750_RLatLon0.09_PT007H.grib2 2026-05-02 20:41 412K
20260502T18Z_MSC_RDPS_DewPointDepression_IsbL-0800_RLatLon0.09_PT007H.grib2 2026-05-02 20:41 439K
20260502T18Z_MSC_RDPS_DewPointDepression_IsbL-0850_RLatLon0.09_PT007H.grib2 2026-05-02 20:41 465K
20260502T18Z_MSC_RDPS_DewPointDepression_IsbL-0875_RLatLon0.09_PT007H.grib2 2026-05-02 20:41 466K
20260502T18Z_MSC_RDPS_DewPointDepression_IsbL-0900_RLatLon0.09_PT007H.grib2 2026-05-02 20:41 456K
20260502T18Z_MSC_RDPS_DewPointDepression_IsbL-0925_RLatLon0.09_PT007H.grib2 2026-05-02 20:41 443K
20260502T18Z_MSC_RDPS_DewPointDepression_IsbL-0950_RLatLon0.09_PT007H.grib2 2026-05-02 20:41 438K
20260502T18Z_MSC_RDPS_DewPointDepression_IsbL-0970_RLatLon0.09_PT007H.grib2 2026-05-02 20:41 430K
20260502T18Z_MSC_RDPS_DewPointDepression_IsbL-0985_RLatLon0.09_PT007H.grib2 2026-05-02 20:41 425K
20260502T18Z_MSC_RDPS_DewPointDepression_IsbL-1000_RLatLon0.09_PT007H.grib2 2026-05-02 20:41 419K
20260502T18Z_MSC_RDPS_DewPointDepression_IsbL-1015_RLatLon0.09_PT007H.grib2 2026-05-02 20:41 409K
20260502T18Z_MSC_RDPS_DewPoint_AGL-2m_RLatLon0.09_PT007H.grib2 2026-05-02 20:41 305K
20260502T18Z_MSC_RDPS_DownwardLongwaveRadiationFlux-Accum_Sfc_RLatLon0.09_PT007H.grib2 2026-05-02 20:41 529K
20260502T18Z_MSC_RDPS_DownwardShortwaveRadiationFlux-Accum_NTAtm_RLatLon0.09_PT007H.grib2 2026-05-02 20:41 116K
20260502T18Z_MSC_RDPS_DownwardShortwaveRadiationFlux-Accum_Sfc_RLatLon0.09_PT007H.grib2 2026-05-02 20:41 481K
20260502T18Z_MSC_RDPS_FreezingRain-Accum1h_Sfc_RLatLon0.09_PT007H.grib2 2026-05-02 20:41 19K
20260502T18Z_MSC_RDPS_FreezingRain-Accum_Sfc_RLatLon0.09_PT007H.grib2 2026-05-02 20:41 27K
20260502T18Z_MSC_RDPS_GeopotentialHeight_IsbL-0001_RLatLon0.09_PT007H.grib2 2026-05-02 20:41 306K
20260502T18Z_MSC_RDPS_GeopotentialHeight_IsbL-0005_RLatLon0.09_PT007H.grib2 2026-05-02 20:41 329K
20260502T18Z_MSC_RDPS_GeopotentialHeight_IsbL-0010_RLatLon0.09_PT007H.grib2 2026-05-02 20:41 296K
20260502T18Z_MSC_RDPS_GeopotentialHeight_IsbL-0020_RLatLon0.09_PT007H.grib2 2026-05-02 20:41 296K
20260502T18Z_MSC_RDPS_GeopotentialHeight_IsbL-0030_RLatLon0.09_PT007H.grib2 2026-05-02 20:41 298K
20260502T18Z_MSC_RDPS_GeopotentialHeight_IsbL-0050_RLatLon0.09_PT007H.grib2 2026-05-02 20:41 300K
20260502T18Z_MSC_RDPS_GeopotentialHeight_IsbL-0100_RLatLon0.09_PT007H.grib2 2026-05-02 20:41 283K
20260502T18Z_MSC_RDPS_GeopotentialHeight_IsbL-0150_RLatLon0.09_PT007H.grib2 2026-05-02 20:41 228K
20260502T18Z_MSC_RDPS_GeopotentialHeight_IsbL-0175_RLatLon0.09_PT007H.grib2 2026-05-02 20:41 231K
20260502T18Z_MSC_RDPS_GeopotentialHeight_IsbL-0200_RLatLon0.09_PT007H.grib2 2026-05-02 20:41 264K
20260502T18Z_MSC_RDPS_GeopotentialHeight_IsbL-0225_RLatLon0.09_PT007H.grib2 2026-05-02 20:41 265K
20260502T18Z_MSC_RDPS_GeopotentialHeight_IsbL-0250_RLatLon0.09_PT007H.grib2 2026-05-02 20:41 266K
20260502T18Z_MSC_RDPS_GeopotentialHeight_IsbL-0275_RLatLon0.09_PT007H.grib2 2026-05-02 20:41 265K
20260502T18Z_MSC_RDPS_GeopotentialHeight_IsbL-0300_RLatLon0.09_PT007H.grib2 2026-05-02 20:41 234K
20260502T18Z_MSC_RDPS_GeopotentialHeight_IsbL-0350_RLatLon0.09_PT007H.grib2 2026-05-02 20:41 230K
20260502T18Z_MSC_RDPS_GeopotentialHeight_IsbL-0400_RLatLon0.09_PT007H.grib2 2026-05-02 20:41 227K
20260502T18Z_MSC_RDPS_GeopotentialHeight_IsbL-0450_RLatLon0.09_PT007H.grib2 2026-05-02 20:41 296K
20260502T18Z_MSC_RDPS_GeopotentialHeight_IsbL-0500_RLatLon0.09_PT007H.grib2 2026-05-02 20:41 292K
20260502T18Z_MSC_RDPS_GeopotentialHeight_IsbL-0550_RLatLon0.09_PT007H.grib2 2026-05-02 20:41 289K
20260502T18Z_MSC_RDPS_GeopotentialHeight_IsbL-0600_RLatLon0.09_PT007H.grib2 2026-05-02 20:41 285K
20260502T18Z_MSC_RDPS_GeopotentialHeight_IsbL-0650_RLatLon0.09_PT007H.grib2 2026-05-02 20:41 256K
20260502T18Z_MSC_RDPS_GeopotentialHeight_IsbL-0700_RLatLon0.09_PT007H.grib2 2026-05-02 20:41 256K
20260502T18Z_MSC_RDPS_GeopotentialHeight_IsbL-0750_RLatLon0.09_PT007H.grib2 2026-05-02 20:41 339K
20260502T18Z_MSC_RDPS_GeopotentialHeight_IsbL-0800_RLatLon0.09_PT007H.grib2 2026-05-02 20:41 344K
20260502T18Z_MSC_RDPS_GeopotentialHeight_IsbL-0850_RLatLon0.09_PT007H.grib2 2026-05-02 20:41 349K
20260502T18Z_MSC_RDPS_GeopotentialHeight_IsbL-0875_RLatLon0.09_PT007H.grib2 2026-05-02 20:41 353K
20260502T18Z_MSC_RDPS_GeopotentialHeight_IsbL-0900_RLatLon0.09_PT007H.grib2 2026-05-02 20:41 355K
20260502T18Z_MSC_RDPS_GeopotentialHeight_IsbL-0925_RLatLon0.09_PT007H.grib2 2026-05-02 20:41 358K
20260502T18Z_MSC_RDPS_GeopotentialHeight_IsbL-0950_RLatLon0.09_PT007H.grib2 2026-05-02 20:41 361K
20260502T18Z_MSC_RDPS_GeopotentialHeight_IsbL-0970_RLatLon0.09_PT007H.grib2 2026-05-02 20:41 367K
20260502T18Z_MSC_RDPS_GeopotentialHeight_IsbL-0985_RLatLon0.09_PT007H.grib2 2026-05-02 20:41 374K
20260502T18Z_MSC_RDPS_GeopotentialHeight_IsbL-1000_RLatLon0.09_PT007H.grib2 2026-05-02 20:41 385K
20260502T18Z_MSC_RDPS_GeopotentialHeight_IsbL-1015_RLatLon0.09_PT007H.grib2 2026-05-02 20:41 398K
20260502T18Z_MSC_RDPS_Humidex_Sfc_RLatLon0.09_PT007H.grib2 2026-05-02 20:41 2.4M
20260502T18Z_MSC_RDPS_IcePellets-Accum1h_Sfc_RLatLon0.09_PT007H.grib2 2026-05-02 20:41 4.9K
20260502T18Z_MSC_RDPS_IcePellets-Accum_Sfc_RLatLon0.09_PT007H.grib2 2026-05-02 20:41 8.7K
20260502T18Z_MSC_RDPS_KIndex_Sfc_RLatLon0.09_PT007H.grib2 2026-05-02 20:41 2.4M
20260502T18Z_MSC_RDPS_LatentHeatNetFlux_Sfc_RLatLon0.09_PT007H.grib2 2026-05-02 20:41 332K
20260502T18Z_MSC_RDPS_LiftedIndex-MU-VT_IsbL-0500_RLatLon0.09_PT007H.grib2 2026-05-02 20:41 2.4M
20260502T18Z_MSC_RDPS_NetLongwaveRadiationFlux-Accum_Sfc_RLatLon0.09_PT007H.grib2 2026-05-02 20:41 546K
20260502T18Z_MSC_RDPS_NetShortwaveRadiationFlux-Accum_Sfc_RLatLon0.09_PT007H.grib2 2026-05-02 20:41 471K
20260502T18Z_MSC_RDPS_PlanetaryBoundaryLayerHeight_Sfc_RLatLon0.09_PT007H.grib2 2026-05-02 20:41 1.0M
20260502T18Z_MSC_RDPS_Precip-Accum1h_Sfc_RLatLon0.09_PT007H.grib2 2026-05-02 20:41 1.3M
20260502T18Z_MSC_RDPS_Precip-Accum_Sfc_RLatLon0.09_PT007H.grib2 2026-05-02 20:41 1.5M
20260502T18Z_MSC_RDPS_PrecipRate_Sfc_RLatLon0.09_PT007H.grib2 2026-05-02 20:41 182K
20260502T18Z_MSC_RDPS_PrecipType-Instant_Sfc_RLatLon0.09_PT007H.grib2 2026-05-02 20:41 563K
20260502T18Z_MSC_RDPS_Pressure-Trend3h_Sfc_RLatLon0.09_PT007H.grib2 2026-05-02 20:41 1.2M
20260502T18Z_MSC_RDPS_Pressure_MSL_RLatLon0.09_PT007H.grib2 2026-05-02 20:41 322K
20260502T18Z_MSC_RDPS_Pressure_PVU-1.5_RLatLon0.09_PT007H.grib2 2026-05-02 20:41 2.3M
20260502T18Z_MSC_RDPS_Pressure_PVU-1_RLatLon0.09_PT007H.grib2 2026-05-02 20:41 2.4M
20260502T18Z_MSC_RDPS_Pressure_PVU-2_RLatLon0.09_PT007H.grib2 2026-05-02 20:41 2.4M
20260502T18Z_MSC_RDPS_Pressure_Sfc_RLatLon0.09_PT007H.grib2 2026-05-02 20:41 498K
20260502T18Z_MSC_RDPS_RadiativeTemp_Sfc_RLatLon0.09_PT007H.grib2 2026-05-02 20:41 305K
20260502T18Z_MSC_RDPS_Rain-Accum1h_Sfc_RLatLon0.09_PT007H.grib2 2026-05-02 20:41 620K
20260502T18Z_MSC_RDPS_Rain-Accum_Sfc_RLatLon0.09_PT007H.grib2 2026-05-02 20:41 1.1M
20260502T18Z_MSC_RDPS_RelativeHumidity_AGL-2m_RLatLon0.09_PT007H.grib2 2026-05-02 20:41 1.0M
20260502T18Z_MSC_RDPS_RelativeHumidity_IsbL-0010_RLatLon0.09_PT007H.grib2 2026-05-02 20:41 624K
20260502T18Z_MSC_RDPS_RelativeHumidity_IsbL-0020_RLatLon0.09_PT007H.grib2 2026-05-02 20:41 668K
20260502T18Z_MSC_RDPS_RelativeHumidity_IsbL-0030_RLatLon0.09_PT007H.grib2 2026-05-02 20:41 598K
20260502T18Z_MSC_RDPS_RelativeHumidity_IsbL-0050_RLatLon0.09_PT007H.grib2 2026-05-02 20:41 305K
20260502T18Z_MSC_RDPS_RelativeHumidity_IsbL-0100_RLatLon0.09_PT007H.grib2 2026-05-02 20:41 274K
20260502T18Z_MSC_RDPS_RelativeHumidity_IsbL-0150_RLatLon0.09_PT007H.grib2 2026-05-02 20:41 412K
20260502T18Z_MSC_RDPS_RelativeHumidity_IsbL-0175_RLatLon0.09_PT007H.grib2 2026-05-02 20:41 479K
20260502T18Z_MSC_RDPS_RelativeHumidity_IsbL-0200_RLatLon0.09_PT007H.grib2 2026-05-02 20:41 551K
20260502T18Z_MSC_RDPS_RelativeHumidity_IsbL-0225_RLatLon0.09_PT007H.grib2 2026-05-02 20:41 615K
20260502T18Z_MSC_RDPS_RelativeHumidity_IsbL-0250_RLatLon0.09_PT007H.grib2 2026-05-02 20:41 679K
20260502T18Z_MSC_RDPS_RelativeHumidity_IsbL-0275_RLatLon0.09_PT007H.grib2 2026-05-02 20:41 702K
20260502T18Z_MSC_RDPS_RelativeHumidity_IsbL-0300_RLatLon0.09_PT007H.grib2 2026-05-02 20:41 743K
20260502T18Z_MSC_RDPS_RelativeHumidity_IsbL-0350_RLatLon0.09_PT007H.grib2 2026-05-02 20:41 768K
20260502T18Z_MSC_RDPS_RelativeHumidity_IsbL-0400_RLatLon0.09_PT007H.grib2 2026-05-02 20:41 779K
20260502T18Z_MSC_RDPS_RelativeHumidity_IsbL-0450_RLatLon0.09_PT007H.grib2 2026-05-02 20:41 784K
20260502T18Z_MSC_RDPS_RelativeHumidity_IsbL-0500_RLatLon0.09_PT007H.grib2 2026-05-02 20:41 803K
20260502T18Z_MSC_RDPS_RelativeHumidity_IsbL-0550_RLatLon0.09_PT007H.grib2 2026-05-02 20:41 822K
20260502T18Z_MSC_RDPS_RelativeHumidity_IsbL-0600_RLatLon0.09_PT007H.grib2 2026-05-02 20:41 846K
20260502T18Z_MSC_RDPS_RelativeHumidity_IsbL-0650_RLatLon0.09_PT007H.grib2 2026-05-02 20:41 865K
20260502T18Z_MSC_RDPS_RelativeHumidity_IsbL-0700_RLatLon0.09_PT007H.grib2 2026-05-02 20:41 891K
20260502T18Z_MSC_RDPS_RelativeHumidity_IsbL-0750_RLatLon0.09_PT007H.grib2 2026-05-02 20:41 927K
20260502T18Z_MSC_RDPS_RelativeHumidity_IsbL-0800_RLatLon0.09_PT007H.grib2 2026-05-02 20:41 1.0M
20260502T18Z_MSC_RDPS_RelativeHumidity_IsbL-0850_RLatLon0.09_PT007H.grib2 2026-05-02 20:41 1.0M
20260502T18Z_MSC_RDPS_RelativeHumidity_IsbL-0875_RLatLon0.09_PT007H.grib2 2026-05-02 20:41 1.0M
20260502T18Z_MSC_RDPS_RelativeHumidity_IsbL-0900_RLatLon0.09_PT007H.grib2 2026-05-02 20:41 1.1M
20260502T18Z_MSC_RDPS_RelativeHumidity_IsbL-0925_RLatLon0.09_PT007H.grib2 2026-05-02 20:41 1.0M
20260502T18Z_MSC_RDPS_RelativeHumidity_IsbL-0950_RLatLon0.09_PT007H.grib2 2026-05-02 20:41 1.0M
20260502T18Z_MSC_RDPS_RelativeHumidity_IsbL-0970_RLatLon0.09_PT007H.grib2 2026-05-02 20:41 1.0M
20260502T18Z_MSC_RDPS_RelativeHumidity_IsbL-0985_RLatLon0.09_PT007H.grib2 2026-05-02 20:41 1.0M
20260502T18Z_MSC_RDPS_RelativeHumidity_IsbL-1000_RLatLon0.09_PT007H.grib2 2026-05-02 20:41 1.0M
20260502T18Z_MSC_RDPS_RelativeHumidity_IsbL-1015_RLatLon0.09_PT007H.grib2 2026-05-02 20:41 1.0M
20260502T18Z_MSC_RDPS_Runoff-Accum_Sfc_RLatLon0.09_PT007H.grib2 2026-05-02 20:41 64K
20260502T18Z_MSC_RDPS_SWEATIndex_Sfc_RLatLon0.09_PT007H.grib2 2026-05-02 20:41 2.4M
20260502T18Z_MSC_RDPS_SeeingIndex_EAtm_RLatLon0.09_PT007H.grib2 2026-05-02 20:41 1.0M
20260502T18Z_MSC_RDPS_SensibleHeatNetFlux_Sfc_RLatLon0.09_PT007H.grib2 2026-05-02 20:41 295K
20260502T18Z_MSC_RDPS_ShowalterIndex_IsbL-0500_RLatLon0.09_PT007H.grib2 2026-05-02 20:41 2.6M
20260502T18Z_MSC_RDPS_SkyTransparencyIndex_EAtm_RLatLon0.09_PT007H.grib2 2026-05-02 20:41 701K
20260502T18Z_MSC_RDPS_Snow-Accum1h_Sfc_RLatLon0.09_PT007H.grib2 2026-05-02 20:41 438K
20260502T18Z_MSC_RDPS_Snow-Accum_Sfc_RLatLon0.09_PT007H.grib2 2026-05-02 20:41 581K
20260502T18Z_MSC_RDPS_SnowDensity_Sfc_RLatLon0.09_PT007H.grib2 2026-05-02 20:41 165K
20260502T18Z_MSC_RDPS_SnowDepth_Sfc_RLatLon0.09_PT007H.grib2 2026-05-02 20:41 651K
20260502T18Z_MSC_RDPS_SoilTemp_DBS-0to10cm_RLatLon0.09_PT007H.grib2 2026-05-02 20:41 212K
20260502T18Z_MSC_RDPS_SoilTemp_Sfc_RLatLon0.09_PT007H.grib2 2026-05-02 20:41 281K
20260502T18Z_MSC_RDPS_SoilVolumetricIceContent_Sfc_RLatLon0.09_PT007H.grib2 2026-05-02 20:41 158K
20260502T18Z_MSC_RDPS_SoilVolumetricWaterContent_DBS-0to10cm_RLatLon0.09_PT007H.grib2 2026-05-02 20:41 272K
20260502T18Z_MSC_RDPS_SoilVolumetricWaterContent_DBS-0to1cm_RLatLon0.09_PT007H.grib2 2026-05-02 20:41 337K
20260502T18Z_MSC_RDPS_SpecificHumidity_AGL-120m_RLatLon0.09_PT007H.grib2 2026-05-02 20:41 479K
20260502T18Z_MSC_RDPS_SpecificHumidity_AGL-2m_RLatLon0.09_PT007H.grib2 2026-05-02 20:41 648K
20260502T18Z_MSC_RDPS_SpecificHumidity_AGL-40m_RLatLon0.09_PT007H.grib2 2026-05-02 20:41 486K
20260502T18Z_MSC_RDPS_SpecificHumidity_AGL-80m_RLatLon0.09_PT007H.grib2 2026-05-02 20:41 480K
20260502T18Z_MSC_RDPS_SpecificHumidity_IsbL-0001_RLatLon0.09_PT007H.grib2 2026-05-02 20:41 357K
20260502T18Z_MSC_RDPS_SpecificHumidity_IsbL-0005_RLatLon0.09_PT007H.grib2 2026-05-02 20:41 359K
20260502T18Z_MSC_RDPS_SpecificHumidity_IsbL-0010_RLatLon0.09_PT007H.grib2 2026-05-02 20:41 391K
20260502T18Z_MSC_RDPS_SpecificHumidity_IsbL-0020_RLatLon0.09_PT007H.grib2 2026-05-02 20:41 377K
20260502T18Z_MSC_RDPS_SpecificHumidity_IsbL-0030_RLatLon0.09_PT007H.grib2 2026-05-02 20:41 370K
20260502T18Z_MSC_RDPS_SpecificHumidity_IsbL-0050_RLatLon0.09_PT007H.grib2 2026-05-02 20:41 487K
20260502T18Z_MSC_RDPS_SpecificHumidity_IsbL-0100_RLatLon0.09_PT007H.grib2 2026-05-02 20:41 416K
20260502T18Z_MSC_RDPS_SpecificHumidity_IsbL-0150_RLatLon0.09_PT007H.grib2 2026-05-02 20:41 453K
20260502T18Z_MSC_RDPS_SpecificHumidity_IsbL-0175_RLatLon0.09_PT007H.grib2 2026-05-02 20:41 442K
20260502T18Z_MSC_RDPS_SpecificHumidity_IsbL-0200_RLatLon0.09_PT007H.grib2 2026-05-02 20:41 453K
20260502T18Z_MSC_RDPS_SpecificHumidity_IsbL-0225_RLatLon0.09_PT007H.grib2 2026-05-02 20:41 454K
20260502T18Z_MSC_RDPS_SpecificHumidity_IsbL-0250_RLatLon0.09_PT007H.grib2 2026-05-02 20:41 516K
20260502T18Z_MSC_RDPS_SpecificHumidity_IsbL-0275_RLatLon0.09_PT007H.grib2 2026-05-02 20:41 476K
20260502T18Z_MSC_RDPS_SpecificHumidity_IsbL-0300_RLatLon0.09_PT007H.grib2 2026-05-02 20:41 448K
20260502T18Z_MSC_RDPS_SpecificHumidity_IsbL-0350_RLatLon0.09_PT007H.grib2 2026-05-02 20:41 568K
20260502T18Z_MSC_RDPS_SpecificHumidity_IsbL-0400_RLatLon0.09_PT007H.grib2 2026-05-02 20:41 520K
20260502T18Z_MSC_RDPS_SpecificHumidity_IsbL-0450_RLatLon0.09_PT007H.grib2 2026-05-02 20:41 571K
20260502T18Z_MSC_RDPS_SpecificHumidity_IsbL-0500_RLatLon0.09_PT007H.grib2 2026-05-02 20:41 507K
20260502T18Z_MSC_RDPS_SpecificHumidity_IsbL-0550_RLatLon0.09_PT007H.grib2 2026-05-02 20:41 580K
20260502T18Z_MSC_RDPS_SpecificHumidity_IsbL-0600_RLatLon0.09_PT007H.grib2 2026-05-02 20:41 635K
20260502T18Z_MSC_RDPS_SpecificHumidity_IsbL-0650_RLatLon0.09_PT007H.grib2 2026-05-02 20:41 555K
20260502T18Z_MSC_RDPS_SpecificHumidity_IsbL-0700_RLatLon0.09_PT007H.grib2 2026-05-02 20:41 599K
20260502T18Z_MSC_RDPS_SpecificHumidity_IsbL-0750_RLatLon0.09_PT007H.grib2 2026-05-02 20:41 652K
20260502T18Z_MSC_RDPS_SpecificHumidity_IsbL-0800_RLatLon0.09_PT007H.grib2 2026-05-02 20:41 729K
20260502T18Z_MSC_RDPS_SpecificHumidity_IsbL-0850_RLatLon0.09_PT007H.grib2 2026-05-02 20:41 800K
20260502T18Z_MSC_RDPS_SpecificHumidity_IsbL-0875_RLatLon0.09_PT007H.grib2 2026-05-02 20:41 826K
20260502T18Z_MSC_RDPS_SpecificHumidity_IsbL-0900_RLatLon0.09_PT007H.grib2 2026-05-02 20:41 839K
20260502T18Z_MSC_RDPS_SpecificHumidity_IsbL-0925_RLatLon0.09_PT007H.grib2 2026-05-02 20:41 838K
20260502T18Z_MSC_RDPS_SpecificHumidity_IsbL-0950_RLatLon0.09_PT007H.grib2 2026-05-02 20:41 700K
20260502T18Z_MSC_RDPS_SpecificHumidity_IsbL-0970_RLatLon0.09_PT007H.grib2 2026-05-02 20:41 690K
20260502T18Z_MSC_RDPS_SpecificHumidity_IsbL-0985_RLatLon0.09_PT007H.grib2 2026-05-02 20:41 681K
20260502T18Z_MSC_RDPS_SpecificHumidity_IsbL-1000_RLatLon0.09_PT007H.grib2 2026-05-02 20:41 674K
20260502T18Z_MSC_RDPS_SpecificHumidity_IsbL-1015_RLatLon0.09_PT007H.grib2 2026-05-02 20:41 663K
20260502T18Z_MSC_RDPS_SpecificHumidity_Sfc_RLatLon0.09_PT007H.grib2 2026-05-02 20:41 323K
20260502T18Z_MSC_RDPS_StormRelativeHelicity_EtaL-10000_RLatLon0.09_PT007H.grib2 2026-05-02 20:41 1.1M
20260502T18Z_MSC_RDPS_StormSeverityIndex_EtaL-10000_RLatLon0.09_PT007H.grib2 2026-05-02 20:41 1.1M
20260502T18Z_MSC_RDPS_Thickness_IsbL-0850to0700_RLatLon0.09_PT007H.grib2 2026-05-02 20:41 176K
20260502T18Z_MSC_RDPS_Thickness_IsbL-1000to0500_RLatLon0.09_PT007H.grib2 2026-05-02 20:41 194K
20260502T18Z_MSC_RDPS_Thickness_IsbL-1000to0850_RLatLon0.09_PT007H.grib2 2026-05-02 20:41 182K
20260502T18Z_MSC_RDPS_TotalCloudCover_Sfc_RLatLon0.09_PT007H.grib2 2026-05-02 20:41 648K
20260502T18Z_MSC_RDPS_TotalTotalsIndex_Sfc_RLatLon0.09_PT007H.grib2 2026-05-02 20:41 2.3M
20260502T18Z_MSC_RDPS_UVIndex-ClearSky_Sfc_RLatLon0.09_PT007H.grib2 2026-05-02 20:41 143K
20260502T18Z_MSC_RDPS_UVIndex_Sfc_RLatLon0.09_PT007H.grib2 2026-05-02 20:41 316K
20260502T18Z_MSC_RDPS_UpwardLongwaveRadiationFlux_NTAtm_RLatLon0.09_PT007H.grib2 2026-05-02 20:41 489K
20260502T18Z_MSC_RDPS_UpwardShortwaveRadiationFlux_NTAtm_RLatLon0.09_PT007H.grib2 2026-05-02 20:41 286K
20260502T18Z_MSC_RDPS_VerticalVelocity_IsbL-0250_RLatLon0.09_PT007H.grib2 2026-05-02 20:41 549K
20260502T18Z_MSC_RDPS_VerticalVelocity_IsbL-0500_RLatLon0.09_PT007H.grib2 2026-05-02 20:41 537K
20260502T18Z_MSC_RDPS_VerticalVelocity_IsbL-0700_RLatLon0.09_PT007H.grib2 2026-05-02 20:41 594K
20260502T18Z_MSC_RDPS_VerticalVelocity_IsbL-0850_RLatLon0.09_PT007H.grib2 2026-05-02 20:41 695K
20260502T18Z_MSC_RDPS_VerticalWindShear_EtaL-6500_RLatLon0.09_PT007H.grib2 2026-05-02 20:41 1.2M
20260502T18Z_MSC_RDPS_WindChill_Sfc_RLatLon0.09_PT007H.grib2 2026-05-02 20:41 1.1M
20260502T18Z_MSC_RDPS_WindDir_AGL-10m_RLatLon0.09_PT007H.grib2 2026-05-02 20:41 942K
20260502T18Z_MSC_RDPS_WindDir_AGL-120m_RLatLon0.09_PT007H.grib2 2026-05-02 20:41 592K
20260502T18Z_MSC_RDPS_WindDir_AGL-40m_RLatLon0.09_PT007H.grib2 2026-05-02 20:41 616K
20260502T18Z_MSC_RDPS_WindDir_AGL-80m_RLatLon0.09_PT007H.grib2 2026-05-02 20:41 601K
20260502T18Z_MSC_RDPS_WindDir_IsbL-0001_RLatLon0.09_PT007H.grib2 2026-05-02 20:41 294K
20260502T18Z_MSC_RDPS_WindDir_IsbL-0005_RLatLon0.09_PT007H.grib2 2026-05-02 20:41 353K
20260502T18Z_MSC_RDPS_WindDir_IsbL-0010_RLatLon0.09_PT007H.grib2 2026-05-02 20:41 378K
20260502T18Z_MSC_RDPS_WindDir_IsbL-0020_RLatLon0.09_PT007H.grib2 2026-05-02 20:41 417K
20260502T18Z_MSC_RDPS_WindDir_IsbL-0030_RLatLon0.09_PT007H.grib2 2026-05-02 20:41 403K
20260502T18Z_MSC_RDPS_WindDir_IsbL-0050_RLatLon0.09_PT007H.grib2 2026-05-02 20:41 404K
20260502T18Z_MSC_RDPS_WindDir_IsbL-0100_RLatLon0.09_PT007H.grib2 2026-05-02 20:41 399K
20260502T18Z_MSC_RDPS_WindDir_IsbL-0150_RLatLon0.09_PT007H.grib2 2026-05-02 20:41 405K
20260502T18Z_MSC_RDPS_WindDir_IsbL-0175_RLatLon0.09_PT007H.grib2 2026-05-02 20:41 421K
20260502T18Z_MSC_RDPS_WindDir_IsbL-0200_RLatLon0.09_PT007H.grib2 2026-05-02 20:41 437K
20260502T18Z_MSC_RDPS_WindDir_IsbL-0225_RLatLon0.09_PT007H.grib2 2026-05-02 20:41 446K
20260502T18Z_MSC_RDPS_WindDir_IsbL-0250_RLatLon0.09_PT007H.grib2 2026-05-02 20:41 448K
20260502T18Z_MSC_RDPS_WindDir_IsbL-0275_RLatLon0.09_PT007H.grib2 2026-05-02 20:41 469K
20260502T18Z_MSC_RDPS_WindDir_IsbL-0300_RLatLon0.09_PT007H.grib2 2026-05-02 20:41 470K
20260502T18Z_MSC_RDPS_WindDir_IsbL-0350_RLatLon0.09_PT007H.grib2 2026-05-02 20:41 503K
20260502T18Z_MSC_RDPS_WindDir_IsbL-0400_RLatLon0.09_PT007H.grib2 2026-05-02 20:41 516K
20260502T18Z_MSC_RDPS_WindDir_IsbL-0450_RLatLon0.09_PT007H.grib2 2026-05-02 20:41 530K
20260502T18Z_MSC_RDPS_WindDir_IsbL-0500_RLatLon0.09_PT007H.grib2 2026-05-02 20:41 541K
20260502T18Z_MSC_RDPS_WindDir_IsbL-0550_RLatLon0.09_PT007H.grib2 2026-05-02 20:41 556K
20260502T18Z_MSC_RDPS_WindDir_IsbL-0600_RLatLon0.09_PT007H.grib2 2026-05-02 20:41 577K
20260502T18Z_MSC_RDPS_WindDir_IsbL-0650_RLatLon0.09_PT007H.grib2 2026-05-02 20:41 617K
20260502T18Z_MSC_RDPS_WindDir_IsbL-0700_RLatLon0.09_PT007H.grib2 2026-05-02 20:41 664K
20260502T18Z_MSC_RDPS_WindDir_IsbL-0750_RLatLon0.09_PT007H.grib2 2026-05-02 20:41 708K
20260502T18Z_MSC_RDPS_WindDir_IsbL-0800_RLatLon0.09_PT007H.grib2 2026-05-02 20:41 771K
20260502T18Z_MSC_RDPS_WindDir_IsbL-0850_RLatLon0.09_PT007H.grib2 2026-05-02 20:41 843K
20260502T18Z_MSC_RDPS_WindDir_IsbL-0875_RLatLon0.09_PT007H.grib2 2026-05-02 20:41 871K
20260502T18Z_MSC_RDPS_WindDir_IsbL-0900_RLatLon0.09_PT007H.grib2 2026-05-02 20:41 884K
20260502T18Z_MSC_RDPS_WindDir_IsbL-0925_RLatLon0.09_PT007H.grib2 2026-05-02 20:41 894K
20260502T18Z_MSC_RDPS_WindDir_IsbL-0950_RLatLon0.09_PT007H.grib2 2026-05-02 20:41 895K
20260502T18Z_MSC_RDPS_WindDir_IsbL-0970_RLatLon0.09_PT007H.grib2 2026-05-02 20:41 903K
20260502T18Z_MSC_RDPS_WindDir_IsbL-0985_RLatLon0.09_PT007H.grib2 2026-05-02 20:41 911K
20260502T18Z_MSC_RDPS_WindDir_IsbL-1000_RLatLon0.09_PT007H.grib2 2026-05-02 20:41 923K
20260502T18Z_MSC_RDPS_WindDir_IsbL-1015_RLatLon0.09_PT007H.grib2 2026-05-02 20:41 935K
20260502T18Z_MSC_RDPS_WindGust-Max_AGL-10m_RLatLon0.09_PT007H.grib2 2026-05-02 20:41 1.0M
20260502T18Z_MSC_RDPS_WindGust-Min_AGL-10m_RLatLon0.09_PT007H.grib2 2026-05-02 20:41 965K
20260502T18Z_MSC_RDPS_WindGust_AGL-10m_RLatLon0.09_PT007H.grib2 2026-05-02 20:41 1.0M
20260502T18Z_MSC_RDPS_WindSpeed_AGL-10m_RLatLon0.09_PT007H.grib2 2026-05-02 20:41 825K
20260502T18Z_MSC_RDPS_WindSpeed_AGL-120m_RLatLon0.09_PT007H.grib2 2026-05-02 20:41 527K
20260502T18Z_MSC_RDPS_WindSpeed_AGL-40m_RLatLon0.09_PT007H.grib2 2026-05-02 20:41 530K
20260502T18Z_MSC_RDPS_WindSpeed_AGL-80m_RLatLon0.09_PT007H.grib2 2026-05-02 20:41 527K
20260502T18Z_MSC_RDPS_WindSpeed_IsbL-0001_RLatLon0.09_PT007H.grib2 2026-05-02 20:41 245K
20260502T18Z_MSC_RDPS_WindSpeed_IsbL-0005_RLatLon0.09_PT007H.grib2 2026-05-02 20:41 367K
20260502T18Z_MSC_RDPS_WindSpeed_IsbL-0010_RLatLon0.09_PT007H.grib2 2026-05-02 20:41 381K
20260502T18Z_MSC_RDPS_WindSpeed_IsbL-0020_RLatLon0.09_PT007H.grib2 2026-05-02 20:41 401K
20260502T18Z_MSC_RDPS_WindSpeed_IsbL-0030_RLatLon0.09_PT007H.grib2 2026-05-02 20:41 306K
20260502T18Z_MSC_RDPS_WindSpeed_IsbL-0050_RLatLon0.09_PT007H.grib2 2026-05-02 20:41 338K
20260502T18Z_MSC_RDPS_WindSpeed_IsbL-0100_RLatLon0.09_PT007H.grib2 2026-05-02 20:41 469K
20260502T18Z_MSC_RDPS_WindSpeed_IsbL-0150_RLatLon0.09_PT007H.grib2 2026-05-02 20:41 383K
20260502T18Z_MSC_RDPS_WindSpeed_IsbL-0175_RLatLon0.09_PT007H.grib2 2026-05-02 20:41 425K
20260502T18Z_MSC_RDPS_WindSpeed_IsbL-0200_RLatLon0.09_PT007H.grib2 2026-05-02 20:41 442K
20260502T18Z_MSC_RDPS_WindSpeed_IsbL-0225_RLatLon0.09_PT007H.grib2 2026-05-02 20:41 449K
20260502T18Z_MSC_RDPS_WindSpeed_IsbL-0250_RLatLon0.09_PT007H.grib2 2026-05-02 20:41 452K
20260502T18Z_MSC_RDPS_WindSpeed_IsbL-0275_RLatLon0.09_PT007H.grib2 2026-05-02 20:41 469K
20260502T18Z_MSC_RDPS_WindSpeed_IsbL-0300_RLatLon0.09_PT007H.grib2 2026-05-02 20:41 467K
20260502T18Z_MSC_RDPS_WindSpeed_IsbL-0350_RLatLon0.09_PT007H.grib2 2026-05-02 20:41 476K
20260502T18Z_MSC_RDPS_WindSpeed_IsbL-0400_RLatLon0.09_PT007H.grib2 2026-05-02 20:41 479K
20260502T18Z_MSC_RDPS_WindSpeed_IsbL-0450_RLatLon0.09_PT007H.grib2 2026-05-02 20:41 462K
20260502T18Z_MSC_RDPS_WindSpeed_IsbL-0500_RLatLon0.09_PT007H.grib2 2026-05-02 20:41 463K
20260502T18Z_MSC_RDPS_WindSpeed_IsbL-0550_RLatLon0.09_PT007H.grib2 2026-05-02 20:41 585K
20260502T18Z_MSC_RDPS_WindSpeed_IsbL-0600_RLatLon0.09_PT007H.grib2 2026-05-02 20:41 596K
20260502T18Z_MSC_RDPS_WindSpeed_IsbL-0650_RLatLon0.09_PT007H.grib2 2026-05-02 20:41 616K
20260502T18Z_MSC_RDPS_WindSpeed_IsbL-0700_RLatLon0.09_PT007H.grib2 2026-05-02 20:41 685K
20260502T18Z_MSC_RDPS_WindSpeed_IsbL-0750_RLatLon0.09_PT007H.grib2 2026-05-02 20:41 715K
20260502T18Z_MSC_RDPS_WindSpeed_IsbL-0800_RLatLon0.09_PT007H.grib2 2026-05-02 20:41 759K
20260502T18Z_MSC_RDPS_WindSpeed_IsbL-0850_RLatLon0.09_PT007H.grib2 2026-05-02 20:41 766K
20260502T18Z_MSC_RDPS_WindSpeed_IsbL-0875_RLatLon0.09_PT007H.grib2 2026-05-02 20:41 785K
20260502T18Z_MSC_RDPS_WindSpeed_IsbL-0900_RLatLon0.09_PT007H.grib2 2026-05-02 20:41 842K
20260502T18Z_MSC_RDPS_WindSpeed_IsbL-0925_RLatLon0.09_PT007H.grib2 2026-05-02 20:41 854K
20260502T18Z_MSC_RDPS_WindSpeed_IsbL-0950_RLatLon0.09_PT007H.grib2 2026-05-02 20:41 855K
20260502T18Z_MSC_RDPS_WindSpeed_IsbL-0970_RLatLon0.09_PT007H.grib2 2026-05-02 20:41 852K
20260502T18Z_MSC_RDPS_WindSpeed_IsbL-0985_RLatLon0.09_PT007H.grib2 2026-05-02 20:41 846K
20260502T18Z_MSC_RDPS_WindSpeed_IsbL-1000_RLatLon0.09_PT007H.grib2 2026-05-02 20:41 838K
20260502T18Z_MSC_RDPS_WindSpeed_IsbL-1015_RLatLon0.09_PT007H.grib2 2026-05-02 20:41 826K
20260502T18Z_MSC_RDPS_WindU_AGL-10m_RLatLon0.09_PT007H.grib2 2026-05-02 20:41 423K
20260502T18Z_MSC_RDPS_WindU_AGL-120m_RLatLon0.09_PT007H.grib2 2026-05-02 20:41 526K
20260502T18Z_MSC_RDPS_WindU_AGL-40m_RLatLon0.09_PT007H.grib2 2026-05-02 20:41 528K
20260502T18Z_MSC_RDPS_WindU_AGL-80m_RLatLon0.09_PT007H.grib2 2026-05-02 20:41 527K
20260502T18Z_MSC_RDPS_WindU_IsbL-0001_RLatLon0.09_PT007H.grib2 2026-05-02 20:41 236K
20260502T18Z_MSC_RDPS_WindU_IsbL-0005_RLatLon0.09_PT007H.grib2 2026-05-02 20:41 273K
20260502T18Z_MSC_RDPS_WindU_IsbL-0010_RLatLon0.09_PT007H.grib2 2026-05-02 20:41 282K
20260502T18Z_MSC_RDPS_WindU_IsbL-0020_RLatLon0.09_PT007H.grib2 2026-05-02 20:41 297K
20260502T18Z_MSC_RDPS_WindU_IsbL-0030_RLatLon0.09_PT007H.grib2 2026-05-02 20:41 341K
20260502T18Z_MSC_RDPS_WindU_IsbL-0050_RLatLon0.09_PT007H.grib2 2026-05-02 20:41 367K
20260502T18Z_MSC_RDPS_WindU_IsbL-0100_RLatLon0.09_PT007H.grib2 2026-05-02 20:41 329K
20260502T18Z_MSC_RDPS_WindU_IsbL-0150_RLatLon0.09_PT007H.grib2 2026-05-02 20:41 398K
20260502T18Z_MSC_RDPS_WindU_IsbL-0175_RLatLon0.09_PT007H.grib2 2026-05-02 20:41 418K
20260502T18Z_MSC_RDPS_WindU_IsbL-0200_RLatLon0.09_PT007H.grib2 2026-05-02 20:41 338K
20260502T18Z_MSC_RDPS_WindU_IsbL-0225_RLatLon0.09_PT007H.grib2 2026-05-02 20:41 343K
20260502T18Z_MSC_RDPS_WindU_IsbL-0250_RLatLon0.09_PT007H.grib2 2026-05-02 20:41 344K
20260502T18Z_MSC_RDPS_WindU_IsbL-0275_RLatLon0.09_PT007H.grib2 2026-05-02 20:41 357K
20260502T18Z_MSC_RDPS_WindU_IsbL-0300_RLatLon0.09_PT007H.grib2 2026-05-02 20:41 353K
20260502T18Z_MSC_RDPS_WindU_IsbL-0350_RLatLon0.09_PT007H.grib2 2026-05-02 20:41 362K
20260502T18Z_MSC_RDPS_WindU_IsbL-0400_RLatLon0.09_PT007H.grib2 2026-05-02 20:41 467K
20260502T18Z_MSC_RDPS_WindU_IsbL-0450_RLatLon0.09_PT007H.grib2 2026-05-02 20:41 468K
20260502T18Z_MSC_RDPS_WindU_IsbL-0500_RLatLon0.09_PT007H.grib2 2026-05-02 20:41 470K
20260502T18Z_MSC_RDPS_WindU_IsbL-0550_RLatLon0.09_PT007H.grib2 2026-05-02 20:41 475K
20260502T18Z_MSC_RDPS_WindU_IsbL-0600_RLatLon0.09_PT007H.grib2 2026-05-02 20:41 485K
20260502T18Z_MSC_RDPS_WindU_IsbL-0650_RLatLon0.09_PT007H.grib2 2026-05-02 20:41 486K
20260502T18Z_MSC_RDPS_WindU_IsbL-0700_RLatLon0.09_PT007H.grib2 2026-05-02 20:41 509K
20260502T18Z_MSC_RDPS_WindU_IsbL-0750_RLatLon0.09_PT007H.grib2 2026-05-02 20:41 535K
20260502T18Z_MSC_RDPS_WindU_IsbL-0800_RLatLon0.09_PT007H.grib2 2026-05-02 20:41 572K
20260502T18Z_MSC_RDPS_WindU_IsbL-0850_RLatLon0.09_PT007H.grib2 2026-05-02 20:41 619K
20260502T18Z_MSC_RDPS_WindU_IsbL-0875_RLatLon0.09_PT007H.grib2 2026-05-02 20:41 636K
20260502T18Z_MSC_RDPS_WindU_IsbL-0900_RLatLon0.09_PT007H.grib2 2026-05-02 20:41 645K
20260502T18Z_MSC_RDPS_WindU_IsbL-0925_RLatLon0.09_PT007H.grib2 2026-05-02 20:41 653K
20260502T18Z_MSC_RDPS_WindU_IsbL-0950_RLatLon0.09_PT007H.grib2 2026-05-02 20:41 650K
20260502T18Z_MSC_RDPS_WindU_IsbL-0970_RLatLon0.09_PT007H.grib2 2026-05-02 20:41 650K
20260502T18Z_MSC_RDPS_WindU_IsbL-0985_RLatLon0.09_PT007H.grib2 2026-05-02 20:41 783K
20260502T18Z_MSC_RDPS_WindU_IsbL-1000_RLatLon0.09_PT007H.grib2 2026-05-02 20:41 775K
20260502T18Z_MSC_RDPS_WindU_IsbL-1015_RLatLon0.09_PT007H.grib2 2026-05-02 20:41 812K
20260502T18Z_MSC_RDPS_WindV_AGL-10m_RLatLon0.09_PT007H.grib2 2026-05-02 20:41 422K
20260502T18Z_MSC_RDPS_WindV_AGL-120m_RLatLon0.09_PT007H.grib2 2026-05-02 20:41 408K
20260502T18Z_MSC_RDPS_WindV_AGL-40m_RLatLon0.09_PT007H.grib2 2026-05-02 20:41 525K
20260502T18Z_MSC_RDPS_WindV_AGL-80m_RLatLon0.09_PT007H.grib2 2026-05-02 20:41 409K
20260502T18Z_MSC_RDPS_WindV_IsbL-0001_RLatLon0.09_PT007H.grib2 2026-05-02 20:41 238K
20260502T18Z_MSC_RDPS_WindV_IsbL-0005_RLatLon0.09_PT007H.grib2 2026-05-02 20:41 276K
20260502T18Z_MSC_RDPS_WindV_IsbL-0010_RLatLon0.09_PT007H.grib2 2026-05-02 20:41 285K
20260502T18Z_MSC_RDPS_WindV_IsbL-0020_RLatLon0.09_PT007H.grib2 2026-05-02 20:41 300K
20260502T18Z_MSC_RDPS_WindV_IsbL-0030_RLatLon0.09_PT007H.grib2 2026-05-02 20:41 303K
20260502T18Z_MSC_RDPS_WindV_IsbL-0050_RLatLon0.09_PT007H.grib2 2026-05-02 20:41 330K
20260502T18Z_MSC_RDPS_WindV_IsbL-0100_RLatLon0.09_PT007H.grib2 2026-05-02 20:41 421K
20260502T18Z_MSC_RDPS_WindV_IsbL-0150_RLatLon0.09_PT007H.grib2 2026-05-02 20:41 396K
20260502T18Z_MSC_RDPS_WindV_IsbL-0175_RLatLon0.09_PT007H.grib2 2026-05-02 20:41 416K
20260502T18Z_MSC_RDPS_WindV_IsbL-0200_RLatLon0.09_PT007H.grib2 2026-05-02 20:41 336K
20260502T18Z_MSC_RDPS_WindV_IsbL-0225_RLatLon0.09_PT007H.grib2 2026-05-02 20:41 341K
20260502T18Z_MSC_RDPS_WindV_IsbL-0250_RLatLon0.09_PT007H.grib2 2026-05-02 20:41 342K
20260502T18Z_MSC_RDPS_WindV_IsbL-0275_RLatLon0.09_PT007H.grib2 2026-05-02 20:41 356K
20260502T18Z_MSC_RDPS_WindV_IsbL-0300_RLatLon0.09_PT007H.grib2 2026-05-02 20:41 378K
20260502T18Z_MSC_RDPS_WindV_IsbL-0350_RLatLon0.09_PT007H.grib2 2026-05-02 20:41 359K
20260502T18Z_MSC_RDPS_WindV_IsbL-0400_RLatLon0.09_PT007H.grib2 2026-05-02 20:41 362K
20260502T18Z_MSC_RDPS_WindV_IsbL-0450_RLatLon0.09_PT007H.grib2 2026-05-02 20:41 466K
20260502T18Z_MSC_RDPS_WindV_IsbL-0500_RLatLon0.09_PT007H.grib2 2026-05-02 20:41 468K
20260502T18Z_MSC_RDPS_WindV_IsbL-0550_RLatLon0.09_PT007H.grib2 2026-05-02 20:41 472K
20260502T18Z_MSC_RDPS_WindV_IsbL-0600_RLatLon0.09_PT007H.grib2 2026-05-02 20:41 483K
20260502T18Z_MSC_RDPS_WindV_IsbL-0650_RLatLon0.09_PT007H.grib2 2026-05-02 20:41 484K
20260502T18Z_MSC_RDPS_WindV_IsbL-0700_RLatLon0.09_PT007H.grib2 2026-05-02 20:41 523K
20260502T18Z_MSC_RDPS_WindV_IsbL-0750_RLatLon0.09_PT007H.grib2 2026-05-02 20:41 547K
20260502T18Z_MSC_RDPS_WindV_IsbL-0800_RLatLon0.09_PT007H.grib2 2026-05-02 20:41 569K
20260502T18Z_MSC_RDPS_WindV_IsbL-0850_RLatLon0.09_PT007H.grib2 2026-05-02 20:41 614K
20260502T18Z_MSC_RDPS_WindV_IsbL-0875_RLatLon0.09_PT007H.grib2 2026-05-02 20:41 631K
20260502T18Z_MSC_RDPS_WindV_IsbL-0900_RLatLon0.09_PT007H.grib2 2026-05-02 20:41 640K
20260502T18Z_MSC_RDPS_WindV_IsbL-0925_RLatLon0.09_PT007H.grib2 2026-05-02 20:41 647K
20260502T18Z_MSC_RDPS_WindV_IsbL-0950_RLatLon0.09_PT007H.grib2 2026-05-02 20:41 645K
20260502T18Z_MSC_RDPS_WindV_IsbL-0970_RLatLon0.09_PT007H.grib2 2026-05-02 20:41 644K
20260502T18Z_MSC_RDPS_WindV_IsbL-0985_RLatLon0.09_PT007H.grib2 2026-05-02 20:41 778K
20260502T18Z_MSC_RDPS_WindV_IsbL-1000_RLatLon0.09_PT007H.grib2 2026-05-02 20:41 770K
20260502T18Z_MSC_RDPS_WindV_IsbL-1015_RLatLon0.09_PT007H.grib2 2026-05-02 20:41 762K